Dillon, MT

10:33 PM MDT on October 19, 2017 (GMT -0600)
Dillon

Weather History for KDLN - March, 2014

Change the Weather History Date:

Sunday, March 2, 2014

  Actual Average Record
Temperature  
Mean Temperature 18 °F 30 °F  
Max Temperature 38 °F 42 °F 61 °F (1992)
Min Temperature -2 °F 19 °F -22 °F (1960)
Degree Days  
Heating Degree Days 47    
Month to date heating degree days 115  
Since 1 July heating degree days 5895  
Cooling Degree Days 0    
Month to date cooling degree days 0  
Year to date cooling degree days 0  
Moisture  
Dew Point 3 °F    
Average Humidity 73    
Maximum Humidity 87    
Minimum Humidity 59    
Precipitation  
Precipitation 0.01 in 0.01 in 0.22 in (1982)
Month to date precipitation 0.01 0.02  
Year to date precipitation 0.24 0.54  
Snow  
Snow 0.00 in - - ()
Snow Depth 1.00 in    
Sea Level Pressure  
Sea Level Pressure 30.07 in    
Wind  
Wind Speed 2 mph (WNW)    
Max Wind Speed 13 mph    
Max Gust Speed 17 mph    
Visibility 8 miles    
Events Snow    
T = Trace of Precipitation, MM = Missing Value Source: NWS Daily Summary

Daily Weather History Graph

Daily Weather History Graph

Search for Another Location

Airport or City:

Trip Planner

Search our weather history database for the weather conditions in past years. The results will help you decide how hot, cold, wet, or windy it might be!

Date:

Astronomy

Mar. 02, 2014 Rise Set
Actual Time 7:06 AM MST 6:18 PM MST
Civil Twilight 6:36 AM MST 6:48 PM MST
Nautical Twilight 6:02 AM MST 7:22 PM MST
Astronomical Twilight 5:28 AM MST 7:56 PM MST
Moon 7:34 AM MST (3/2) 8:26 PM MST (3/2)
Length of Visible Light 12h 11m
Length of Day
11h 12m
Waxing Crescent, 3% of the Moon is Illuminated
Mar 2
Waxing Crescent
Mar 8
First Quarter
Mar 16
Full
Mar 23
Last Quarter
Mar 30
New

Hourly Weather History & Observations

Time (MST) Temp. Windchill Dew Point Humidity Pressure Visibility Wind Dir Wind Speed Gust Speed Precip Events Conditions
12:53 AM -0.9 °F - -8.0 °F 72% 30.25 in 10.0 mi Calm Calm - N/A   Overcast
1:53 AM -0.9 °F - -8.0 °F 72% 30.25 in 10.0 mi Calm Calm - N/A   Overcast
2:53 AM -0.9 °F -11.0 °F -7.1 °F 75% 30.23 in 10.0 mi NW 4.6 mph - N/A   Overcast
3:53 AM -0.0 °F - -7.1 °F 72% 30.21 in 10.0 mi Calm Calm - N/A   Overcast
4:53 AM 1.0 °F - -6.0 °F 72% 30.23 in 2.5 mi Calm Calm - 0.00 in Snow Light Snow
5:02 AM 1.0 °F - -6.0 °F 72% 29.90 in 4.0 mi Calm Calm - 0.00 in Snow Light Snow
5:28 AM 1.0 °F -6.7 °F -5.1 °F 75% 29.91 in 2.0 mi NNW 3.5 mph - 0.00 in Snow Light Snow
5:30 AM 1.0 °F -6.7 °F -5.1 °F 75% 29.90 in 1.8 mi NW 3.5 mph - 0.00 in Snow Light Snow
5:53 AM 1.0 °F - -4.0 °F 79% 30.23 in 2.5 mi Calm Calm - 0.00 in Snow Light Snow
6:01 AM 1.0 °F - -4.0 °F 79% 29.90 in 4.0 mi Calm Calm - 0.00 in Snow Light Snow
6:09 AM 1.0 °F -6.7 °F -4.0 °F 79% 29.90 in 1.8 mi WNW 3.5 mph - 0.01 in Snow Light Snow
6:26 AM 1.0 °F -6.7 °F -4.0 °F 79% 29.89 in 3.0 mi NE 3.5 mph - 0.01 in Snow Light Snow
6:39 AM 1.9 °F -9.2 °F -4.0 °F 76% 29.91 in 8.0 mi North 5.8 mph - 0.01 in   Overcast
6:53 AM 1.9 °F - -2.9 °F 80% 30.22 in 10.0 mi Calm Calm - 0.01 in   Overcast
7:53 AM 1.9 °F -7.6 °F -2.9 °F 80% 30.22 in 10.0 mi NNW 4.6 mph - N/A   Overcast
8:53 AM 3.9 °F - -2.0 °F 76% 30.22 in 10.0 mi Calm Calm - N/A   Mostly Cloudy
9:53 AM 5.0 °F - -0.9 °F 76% 30.22 in 10.0 mi Calm Calm - N/A   Mostly Cloudy
10:53 AM 9.0 °F 2.4 °F 1.0 °F 70% 30.18 in 10.0 mi Variable 3.5 mph - N/A   Mostly Cloudy
11:53 AM 12.0 °F 5.9 °F 3.9 °F 70% 30.16 in 10.0 mi Variable 3.5 mph - N/A   Mostly Cloudy
12:53 PM 15.1 °F - 6.1 °F 68% 30.14 in 10.0 mi Calm Calm - N/A   Mostly Cloudy
1:53 PM 16.0 °F 10.4 °F 7.0 °F 68% 30.10 in 10.0 mi WSW 3.5 mph - N/A   Mostly Cloudy
2:53 PM 18.0 °F - 9.0 °F 68% 30.08 in 10.0 mi Calm Calm - N/A   Scattered Clouds
3:53 PM 21.9 °F 14.5 °F 14.0 °F 72% 30.05 in 10.0 mi SSE 5.8 mph - N/A   Mostly Cloudy
4:53 PM 21.0 °F 16.2 °F 14.0 °F 74% 30.04 in 10.0 mi SW 3.5 mph - N/A   Clear
5:53 PM 19.9 °F 14.9 °F 12.0 °F 71% 30.04 in 10.0 mi NE 3.5 mph - N/A   Mostly Cloudy
6:53 PM 17.1 °F 11.7 °F 10.9 °F 77% 30.05 in 10.0 mi East 3.5 mph - N/A   Clear
7:53 PM 19.9 °F 14.9 °F 12.9 °F 74% 30.03 in 10.0 mi South 3.5 mph - N/A   Clear
8:53 PM 28.0 °F 21.7 °F 19.0 °F 69% 29.99 in 10.0 mi West 5.8 mph - N/A   Clear
9:53 PM 37.0 °F - 24.1 °F 59% 29.95 in 10.0 mi Calm Calm - N/A   Partly Cloudy
10:53 PM 35.1 °F 32.2 °F 25.0 °F 67% 29.93 in 10.0 mi SE 3.5 mph - N/A   Overcast
11:53 PM 36.0 °F 33.3 °F 26.1 °F 67% 29.91 in 10.0 mi South 3.5 mph - N/A   Overcast